Location: Bailey Volunteer Fire Department
(33.4359°N, 96.1680°W)
Time: 17:29:54
(UTC+00:00)

IGS 5A - Pass Details

Date: 13 December 2025
Orbit: 551 x 554 km, 97.4° (Epoch: 8 January)

Event Time Altitude Azimuth Distance (km) Brightness Sun altitude
Rises 12:39:35 0° 2° (N) 2,738 6.7 -8.5°
Reaches altitude 10° 12:41:49 10° 354° (N) 1,838 5.7 -8.1°
Maximum altitude 12:45:31 38° 286° (WNW) 853 3.8 -7.4°
Drops below altitude 10° 12:49:11 10° 217° (SW) 1,824 5.8 -6.7°
Sets 12:51:24 0° 210° (SSW) 2,714 6.8 -6.2°
